| time (UTC) | temp C | wind direction | speed KPH | gust KPH | rain 1hr cm | rain 24hr cm | rain mn cm | humidity % | barometer mb |
| 20260506013912 | 7 | 25.7 | 25.7 | 0.00 | 0.00 | 0.00 | 10 | 1009.7 | |
| 20260506012908 | 7 | 25.7 | 25.7 | 0.00 | 0.00 | 0.00 | 10 | 1009.7 | |
| 20260506011903 | 7 | 24.1 | 25.7 | 0.00 | 0.00 | 0.00 | 10 | 1010.0 | |
| 20260506010859 | 7 | 24.1 | 25.7 | 0.00 | 0.00 | 0.00 | 10 | 1009.7 | |
| 20260506005853 | 7 | 24.1 | 25.7 | 0.00 | 0.00 | 0.00 | 10 | 1009.8 | |
| 20260506004848 | 7 | 24.1 | 25.7 | 0.00 | 0.00 | 0.00 | 10 | 1009.8 | |
| 20260506003843 | 7 | 24.1 | 25.7 | 0.00 | 0.00 | 0.00 | 10 | 1009.8 | |
| 20260506002839 | 7 | 24.1 | 25.7 | 0.00 | 0.00 | 0.00 | 10 | 1009.9 | |
| 20260506001833 | 7 | 24.1 | 27.4 | 0.00 | 0.00 | 0.00 | 10 | 1009.9 | |
| 20260506000829 | 7 | 24.1 | 25.7 | 0.00 | 0.00 | 0.00 | 10 | 1010.0 | |
| 20260505235824 | 7 | 24.1 | 24.1 | 0.00 | 0.00 | 0.00 | 10 | 1010.1 | |
| 20260505234819 | 7 | 24.1 | 25.7 | 0.00 | 0.00 | 0.00 | 10 | 1010.2 | |
| 20260505233814 | 7 | 24.1 | 27.4 | 0.00 | 0.00 | 0.00 | 10 | 1010.2 | |
| 20260505232809 | 7 | 24.1 | 25.7 | 0.00 | 0.00 | 0.00 | 10 | 1010.5 | |
| 20260505231804 | 7 | 24.1 | 27.4 | 0.00 | 0.00 | 0.00 | 10 | 1010.4 | |
| 20260505230759 | 7 | 24.1 | 25.7 | 0.00 | 0.00 | 0.00 | 10 | 1010.5 | |
| 20260505225754 | 7 | 25.7 | 25.7 | 0.00 | 0.00 | 0.00 | 10 | 1010.4 | |
| 20260505224750 | 7 | 25.7 | 27.4 | 0.00 | 0.00 | 0.00 | 10 | 1010.5 | |
| 20260505223745 | 7 | 24.1 | 25.7 | 0.00 | 0.00 | 0.00 | 10 | 1010.4 | |
| 20260505222740 | 7 | 25.7 | 25.7 | 0.00 | 0.00 | 0.00 | 10 | 1010.6 | |
| 20260505221735 | 7 | 24.1 | 25.7 | 0.00 | 0.00 | 0.00 | 10 | 1010.7 | |
| 20260505220729 | 7 | 24.1 | 25.7 | 0.00 | 0.00 | 0.00 | 10 | 1010.7 | |
| 20260505215724 | 7 | 24.1 | 27.4 | 0.00 | 0.00 | 0.00 | 10 | 1010.7 | |
| 20260505214721 | 8 | 24.1 | 25.7 | 0.00 | 0.00 | 0.00 | 10 | 1010.7 | |
| 20260505213720 | 8 | 24.1 | 25.7 | 0.00 | 0.00 | 0.00 | 10 | 1010.5 | |
| 20260505212719 | 8 | 24.1 | 25.7 | 0.00 | 0.00 | 0.00 | 10 | 1010.5 | |
| 20260505211717 | 8 | 24.1 | 25.7 | 0.00 | 0.00 | 0.00 | 10 | 1010.5 | |
| 20260505210717 | 8 | 24.1 | 24.1 | 0.00 | 0.00 | 0.00 | 10 | 1010.6 | |
| 20260505205716 | 8 | 24.1 | 27.4 | 0.00 | 0.00 | 0.00 | 10 | 1010.6 | |
| 20260505204716 | 8 | 24.1 | 25.7 | 0.00 | 0.00 | 0.00 | 10 | 1010.5 | |
| 20260505203714 | 8 | 24.1 | 25.7 | 0.00 | 0.00 | 0.00 | 10 | 1010.5 | |
| 20260505202713 | 8 | 24.1 | 25.7 | 0.00 | 0.00 | 0.00 | 10 | 1010.3 | |
| 20260505201712 | 8 | 24.1 | 25.7 | 0.00 | 0.00 | 0.00 | 10 | 1010.3 | |
| 20260505200711 | 8 | 24.1 | 27.4 | 0.00 | 0.00 | 0.00 | 10 | 1010.2 | |
| 20260505195711 | 8 | 24.1 | 25.7 | 0.00 | 0.00 | 0.00 | 10 | 1010.1 | |
| 20260505194710 | 8 | 24.1 | 27.4 | 0.00 | 0.00 | 0.00 | 10 | 1010.1 | |
| 20260505193709 | 8 | 24.1 | 25.7 | 0.00 | 0.00 | 0.00 | 10 | 1010.1 | |
| 20260505192709 | 8 | 24.1 | 24.1 | 0.00 | 0.00 | 0.00 | 10 | 1010.0 | |
| 20260505191708 | 8 | 24.1 | 25.7 | 0.00 | 0.00 | 0.00 | 10 | 1010.1 | |
| 20260505190707 | 9 | 24.1 | 25.7 | 0.00 | 0.00 | 0.00 | 10 | 1009.8 | |
| 20260505185706 | 9 | 24.1 | 25.7 | 0.00 | 0.00 | 0.00 | 10 | 1009.8 | |
| 20260505184705 | 9 | 24.1 | 25.7 | 0.00 | 0.00 | 0.00 | 10 | 1010.0 | |
| 20260505183704 | 9 | 24.1 | 25.7 | 0.00 | 0.00 | 0.00 | 10 | 1009.9 | |
| 20260505182703 | 10 | 24.1 | 25.7 | 0.00 | 0.00 | 0.00 | 10 | 1009.9 | |
| 20260505181703 | 10 | 24.1 | 25.7 | 0.00 | 0.00 | 0.00 | 10 | 1009.8 | |
| 20260505180702 | 10 | 24.1 | 27.4 | 0.00 | 0.00 | 0.00 | 10 | 1009.7 | |
| 20260505175701 | 10 | 24.1 | 25.7 | 0.00 | 0.00 | 0.00 | 10 | 1009.7 | |
| 20260505174701 | 10 | 24.1 | 25.7 | 0.00 | 0.00 | 0.00 | 10 | 1009.7 | |
| 20260505173700 | 10 | 24.1 | 24.1 | 0.00 | 0.00 | 0.00 | 10 | 1009.7 | |
| 20260505172659 | 10 | 24.1 | 27.4 | 0.00 | 0.00 | 0.00 | 10 | 1009.6 | |
| 20260505171658 | 10 | 24.1 | 25.7 | 0.00 | 0.00 | 0.00 | 10 | 1009.5 | |
| 20260505170657 | 10 | 24.1 | 25.7 | 0.00 | 0.00 | 0.00 | 10 | 1009.6 | |
| 20260505165656 | 10 | 24.1 | 25.7 | 0.00 | 0.00 | 0.00 | 10 | 1009.6 | |
| 20260505164655 | 10 | 24.1 | 27.4 | 0.00 | 0.00 | 0.00 | 10 | 1009.6 | |
| 20260505163654 | 10 | 24.1 | 25.7 | 0.00 | 0.00 | 0.00 | 10 | 1009.7 | |
| 20260505162653 | 10 | 24.1 | 27.4 | 0.00 | 0.00 | 0.00 | 10 | 1009.6 | |
| 20260505161653 | 10 | 24.1 | 25.7 | 0.00 | 0.00 | 0.00 | 10 | 1009.5 | |
| 20260505160652 | 10 | 24.1 | 25.7 | 0.00 | 0.00 | 0.00 | 10 | 1009.4 | |
| 20260505152648 | 11 | 24.1 | 25.7 | 0.00 | 0.00 | 0.00 | 10 | 1009.8 | |
| 20260505151647 | 12 | 24.1 | 25.7 | 0.00 | 0.00 | 0.00 | 10 | 1009.9 | |
| 20260505150646 | 13 | 24.1 | 25.7 | 0.00 | 0.00 | 0.00 | 10 | 1009.5 | |
| 20260505140642 | 16 | 24.1 | 25.7 | 0.00 | 0.00 | 0.00 | 85 | 1009.3 | |
| 20260505124637 | 13 | 24.1 | 27.4 | 0.00 | 0.00 | 0.00 | 10 | 1010.0 | |
| 20260505123636 | 12 | 24.1 | 25.7 | 0.00 | 0.00 | 0.00 | 10 | 1010.1 | |
| 20260505122635 | 12 | 24.1 | 25.7 | 0.00 | 0.00 | 0.00 | 10 | 1010.2 | |
| 20260505121634 | 12 | 24.1 | 25.7 | 0.00 | 0.00 | 0.00 | 10 | 1010.2 | |
| 20260505120633 | 12 | 24.1 | 27.4 | 0.00 | 0.00 | 0.00 | 10 | 1010.4 | |
| 20260505115632 | 12 | 24.1 | 25.7 | 0.00 | 0.00 | 0.00 | 10 | 1010.4 | |
| 20260505114632 | 12 | 24.1 | 27.4 | 0.00 | 0.00 | 0.00 | 10 | 1010.4 | |
| 20260505113631 | 12 | 24.1 | 24.1 | 0.00 | 0.00 | 0.00 | 10 | 1010.4 | |
| 20260505112630 | 12 | 24.1 | 25.7 | 0.00 | 0.00 | 0.00 | 10 | 1010.5 | |
| 20260505111629 | 12 | 24.1 | 27.4 | 0.00 | 0.00 | 0.00 | 10 | 1010.5 | |
| 20260505110628 | 12 | 24.1 | 27.4 | 0.00 | 0.00 | 0.00 | 10 | 1010.6 | |
| 20260505101623 | 12 | 24.1 | 24.1 | 0.00 | 0.00 | 0.00 | 10 | 1010.7 | |
| 20260505100622 | 12 | 24.1 | 25.7 | 0.00 | 0.00 | 0.00 | 10 | 1010.7 | |
| 20260505095621 | 13 | 24.1 | 25.7 | 0.00 | 0.00 | 0.00 | 10 | 1010.7 | |
| 20260505094621 | 13 | 24.1 | 25.7 | 0.00 | 0.00 | 0.00 | 98 | 1010.8 | |
| 20260505093620 | 13 | 24.1 | 25.7 | 0.00 | 0.00 | 0.00 | 10 | 1010.7 | |
| 20260505092619 | 13 | 24.1 | 25.7 | 0.00 | 0.00 | 0.00 | 98 | 1010.8 | |
| 20260505091618 | 13 | 24.1 | 27.4 | 0.00 | 0.00 | 0.00 | 96 | 1010.9 | |
| 20260505090617 | 14 | 24.1 | 25.7 | 0.00 | 0.00 | 0.00 | 94 | 1010.9 | |
| 20260505085617 | 14 | 24.1 | 25.7 | 0.00 | 0.00 | 0.00 | 96 | 1010.8 | |
| 20260505084616 | 14 | 24.1 | 27.4 | 0.00 | 0.00 | 0.00 | 93 | 1010.9 | |
| 20260505083615 | 13 | 24.1 | 25.7 | 0.00 | 0.00 | 0.00 | 91 | 1011.0 | |
| 20260505082614 | 14 | 25.7 | 25.7 | 0.00 | 0.00 | 0.00 | 87 | 1010.9 | |
| 20260505081613 | 15 | 24.1 | 25.7 | 0.00 | 0.00 | 0.00 | 83 | 1010.9 | |
| 20260505080613 | 14 | 24.1 | 25.7 | 0.00 | 0.00 | 0.00 | 82 | 1010.9 | |
| 20260505075612 | 14 | 24.1 | 25.7 | 0.00 | 0.00 | 0.00 | 83 | 1011.0 | |
| 20260505074611 | 14 | 24.1 | 25.7 | 0.00 | 0.00 | 0.00 | 79 | 1011.1 | |
| 20260505073610 | 14 | 24.1 | 25.7 | 0.00 | 0.00 | 0.00 | 88 | 1011.2 | |
| 20260505072609 | 13 | 24.1 | 25.7 | 0.00 | 0.00 | 0.00 | 94 | 1011.2 | |
| 20260505071608 | 12 | 24.1 | 25.7 | 0.00 | 0.00 | 0.00 | 10 | 1011.3 | |
| 20260505070607 | 12 | 24.1 | 25.7 | 0.00 | 0.00 | 0.00 | 10 | 1011.4 | |
| 20260505065606 | 12 | 24.1 | 25.7 | 0.00 | 0.00 | 0.00 | 10 | 1011.4 | |
| 20260505064605 | 12 | 25.7 | 27.4 | 0.00 | 0.00 | 0.00 | 10 | 1011.4 | |
| 20260505063604 | 11 | 24.1 | 25.7 | 0.00 | 0.00 | 0.00 | 10 | 1011.5 | |
| 20260505062603 | 11 | 24.1 | 25.7 | 0.00 | 0.00 | 0.00 | 10 | 1011.7 | |
| 20260505061603 | 11 | 25.7 | 25.7 | 0.00 | 0.00 | 0.00 | 10 | 1011.7 | |
| 20260505060602 | 11 | 24.1 | 25.7 | 0.00 | 0.00 | 0.00 | 10 | 1011.7 | |
| 20260505055601 | 12 | 24.1 | 27.4 | 0.00 | 0.00 | 0.00 | 10 | 1011.6 | |
| 20260505054600 | 12 | 24.1 | 25.7 | 0.00 | 0.00 | 0.00 | 99 | 1011.6 | |
| 20260505053559 | 12 | 24.1 | 25.7 | 0.00 | 0.00 | 0.00 | 10 | 1011.7 | |
| 20260505052559 | 11 | 24.1 | 25.7 | 0.00 | 0.00 | 0.00 | 10 | 1011.6 | |
| 20260505051557 | 10 | 24.1 | 27.4 | 0.00 | 0.00 | 0.00 | 10 | 1011.5 | |
| 20260505050557 | 9 | 24.1 | 25.7 | 0.00 | 0.00 | 0.00 | 10 | 1011.5 | |
| 20260505041551 | 10 | 24.1 | 25.7 | 0.00 | 0.00 | 0.00 | 10 | 1011.6 | |
| 20260505040550 | 9 | 24.1 | 25.7 | 0.00 | 0.00 | 0.00 | 10 | 1011.5 | |
| 20260505035550 | 10 | 24.1 | 25.7 | 0.00 | 0.00 | 0.00 | 10 | 1011.6 | |
| 20260505034549 | 10 | 24.1 | 25.7 | 0.00 | 0.00 | 0.00 | 10 | 1011.8 | |
| 20260505033548 | 10 | 24.1 | 25.7 | 0.00 | 0.00 | 0.00 | 10 | 1011.8 | |
| 20260505032547 | 10 | 25.7 | 27.4 | 0.00 | 0.00 | 0.00 | 10 | 1011.8 | |
| 20260505031546 | 10 | 24.1 | 25.7 | 0.00 | 0.00 | 0.00 | 10 | 1011.9 | |
| 20260505030545 | 10 | 24.1 | 27.4 | 0.00 | 0.00 | 0.00 | 10 | 1011.9 | |
| 20260505025544 | 10 | 24.1 | 25.7 | 0.00 | 0.00 | 0.00 | 10 | 1012.0 | |
| 20260505024543 | 10 | 24.1 | 25.7 | 0.00 | 0.00 | 0.00 | 10 | 1012.2 | |
| 20260505023542 | 10 | 24.1 | 25.7 | 0.00 | 0.00 | 0.00 | 10 | 1012.2 | |
| 20260505022541 | 10 | 24.1 | 27.4 | 0.00 | 0.00 | 0.00 | 10 | 1012.3 | |
| 20260505021540 | 10 | 24.1 | 25.7 | 0.00 | 0.00 | 0.00 | 10 | 1012.4 | |
| 20260505020539 | 8 | 24.1 | 25.7 | 0.00 | 0.00 | 0.00 | 10 | 1012.5 | |
| 20260505015538 | 8 | 24.1 | 27.4 | 0.00 | 0.00 | 0.00 | 10 | 1012.6 | |
| 20260505014537 | 8 | 24.1 | 27.4 | 0.00 | 0.00 | 0.00 | 10 | 1012.8 |